STARLINK-2328

decayed
NORAD ID: 47872 Int'l Des: 2021-021 Owner: SPXS Country: US Constellation: starlink
LEOCIRCULAR

关于 STARLINK-2328

正在加载描述...

高度历史

Altitude vs Time

uPlot chart will show altitude changes over time

两行轨道根数

1 47872U 21021N 23070.10185771 .01050128 47573-3 35330-2 0 9998
2 47872 53.0395 326.0084 0010288 211.8622 148.1781 15.89461130113743
Epoch: Mar 11, 2023 • Age: 22065 hours

当前状态

Position data unavailable
发射日期 Mar 14, 2021
运行时间 4.5 years
衰减日期 Mar 15, 2023
类型 internet

技术详情

分类 Payload
质量 260.00 kg
干质量 248.00 kg
总质量 260.00 kg
长度 0.20 m
直径 2.80 m
跨度 9.00 m
形状 Box + pan
制造商 SPXS
平台类型 Starlink
阶段状态 Reentered
所有者/国家 SPXS/US

大型星座

Loading constellations...